Total_Precipitation_Accumulation
0.00 0.00 0.00 0.00 0.00 0.00 0.00 0.00 0.00 0.00 0.00 0.00 0.00 0.00 0.00 0.00 0.00 0.00 0.00 0.00 0.00 0.00 0.00 0.00 0.00 0.00 0.00
0.00 0.00 0.00 0.00 0.00 0.00 0.00 0.00 0.00 0.00 0.00 0.00 0.00 0.00 0.00 0.00 0.00 0.00 0.00 0.00 0.00 0.00 0.00 0.00 0.00 0.00 0.00
0.00 0.00 0.00 0.00 0.00 0.00 0.00 0.00 0.00 0.00 0.00 0.00 0.00 0.00 0.00 0.00 0.00 0.00 0.00 0.00 0.00 0.00 0.00 0.00 0.00 0.00 0.00
0.00 0.00 0.00 0.00 0.00 0.00 0.00 0.00 0.00 0.00 0.00 0.00 0.00 0.00 0.00 0.00 0.00 0.00 0.00 0.00 0.00 0.00 0.00 0.00 0.00 0.00 0.00
0.00 0.00 0.00 0.00 0.00 0.00 0.00 0.00 0.00 0.00 0.00 0.00 0.00 0.00 0.00 0.00 0.00 0.00 0.00 0.00 0.00 0.00 0.00 0.00 0.00 0.00 0.00
0.00 0.00 0.00 0.00 0.00 0.00 0.00 0.00 0.00 0.00 0.00 0.00 0.00 0.00 0.00 0.00 0.00 0.00 0.00 0.00 0.00 0.00 0.00 0.00 0.00 0.00 0.00
0.00 0.00 0.00 0.00 0.00 0.00 0.00 0.00 0.00 0.00 0.00 0.00 0.00 0.00 0.00 0.00 0.00 0.00 0.00 0.00 0.00 0.00 0.00 0.00 0.00 0.00 0.00
0.01 0.00 0.00 0.00 0.00 0.01 0.02 0.03 0.01 0.00 0.01 0.02 0.00 0.00 0.00 0.00 0.00 0.00 0.00 0.00 0.00 0.00 0.00 0.01 0.01 0.01 0.00
0.01 0.01 0.00 0.01 0.02 0.06 0.08 0.08 0.07 0.01 0.00 0.02 0.01 0.00 0.00 0.00 0.00 0.00 0.01 0.00 0.00 0.00 0.00 0.00 0.01 0.01 0.00
0.01 0.01 0.01 0.00 0.01 0.05 0.07 0.15 0.10 0.11 0.02 0.03 0.02 0.02 0.09 0.02 0.00 0.00 0.01 0.01 0.00 0.00 0.00 0.01 0.01 0.00 0.00
0.01 0.00 0.00 0.01 0.02 0.03 0.07 0.10 0.16 0.16 0.03 0.07 0.16 0.10 0.13 0.05 0.01 0.00 0.02 0.03 0.02 0.00 0.00 0.00 0.00 0.00 0.00
0.02 0.02 0.01 0.02 0.03 0.06 0.09 0.12 0.09 0.10 0.07 0.19 0.31 0.14 0.13 0.16 0.07 0.01 0.03 0.03 0.02 0.01 0.00 0.00 0.00 0.00 0.00
0.05 0.02 0.03 0.04 0.09 0.14 0.17 0.23 0.28 0.21 0.22 0.29 0.28 0.19 0.17 0.15 0.07 0.04 0.03 0.03 0.02 0.01 0.00 0.00 0.00 0.00 0.00
0.08 0.05 0.07 0.12 0.19 0.19 0.23 0.22 0.34 0.26 0.21 0.36 0.34 0.28 0.32 0.17 0.07 0.07 0.03 0.03 0.01 0.00 0.00 0.00 0.00 0.00 0.00
0.17 0.19 0.19 0.20 0.18 0.20 0.29 0.32 0.31 0.15 0.15 0.18 0.30 0.31 0.23 0.19 0.18 0.08 0.02 0.01 0.00 0.00 0.01 0.00 0.00 0.00 0.00
0.22 0.21 0.24 0.23 0.19 0.20 0.24 0.29 0.21 0.11 0.14 0.18 0.21 0.31 0.28 0.20 0.10 0.06 0.04 0.02 0.00 0.02 0.03 0.02 0.01 0.00 0.00
0.21 0.19 0.18 0.21 0.21 0.24 0.17 0.21 0.18 0.11 0.10 0.15 0.15 0.15 0.16 0.08 0.02 0.02 0.02 0.01 0.03 0.05 0.03 0.01 0.01 0.00 0.00